Terminal Aerodrome Forecast
Issued by NWS

Home | Current Version | Previous Version | Text Only | Print | Product List | Glossary On
Versions: 1 2 3 4 5 6 7 8 9 10 11 12 13 14 15 16 17 18 19 20 21 22 23 24 25 26 27
000
FTUS42 KJAX 311457 AAD
TAFVQQ
TAF AMD
KVQQ 311457Z 3115/0112 00000KT P6SM BKN010
     FM311700 VRB03KT P6SM SCT010 BKN150
     FM311900 20007KT P6SM VCTS SCT025CB BKN040
     FM010000 20004KT P6SM SCT020 BKN100=

USA.gov is the U.S. government's official web portal to all federal, state and local government web resources and services.